This is the latest recevied weather packets stored in our database for station/object W3SN-13. If no packets are shown the sender has not sent any weather packets the latest 10 day(s).
| Time | Temp. | Humidity | Pressure | Rain* | Wind** | Luminosity | Snow |
|---|---|---|---|---|---|---|---|
| 1787984657 | 27.78° C | 48% | 1013.4 hPa | 0 mm | - | - | - |
| 1787984055 | 28.33° C | 48% | 1013.4 hPa | 0 mm | - | - | - |
| 1787983454 | 28.33° C | 48% | 1013.4 hPa | 0 mm | - | - | - |
| 1787982852 | 27.78° C | 49% | 1013.4 hPa | 0 mm | - | - | - |
| 1787982251 | 27.78° C | 49% | 1013.4 hPa | 0 mm | - | - | - |
| 1787981649 | 28.33° C | 49% | 1013.3 hPa | 0 mm | - | - | - |
| 1787981048 | 28.33° C | 48% | 1013.3 hPa | 0 mm | - | - | - |
| 1787980447 | 28.89° C | 47% | 1013.2 hPa | 0 mm | - | - | - |
| 1787979845 | 29.44° C | 47% | 1013.2 hPa | 0 mm | - | - | - |
| 1787979243 | 29.44° C | 46% | 1013.1 hPa | 0 mm | - | - | - |
| 1787978642 | 29.44° C | 45% | 1013.1 hPa | 0 mm | - | - | - |
| 1787978038 | 30° C | 46% | 1013.1 hPa | 0 mm | - | - | - |
| 1787977436 | 30° C | 45% | 1013.1 hPa | 0 mm | - | - | - |
| 1787976834 | 30° C | 45% | 1013.1 hPa | 0 mm | - | - | - |
| 1787976232 | 30.56° C | 44% | 1013 hPa | 0 mm | - | - | - |
| 1787975631 | 30.56° C | 44% | 1012.9 hPa | 0 mm | - | - | - |
| 1787975029 | 31.11° C | 43% | 1012.8 hPa | 0 mm | - | - | - |
| 1787974427 | 31.67° C | 42% | 1012.7 hPa | 0 mm | - | - | - |
| 1787973826 | 31.67° C | 40% | 1012.5 hPa | 0 mm | - | - | - |
| 1787973225 | 31.67° C | 41% | 1012.4 hPa | 0 mm | - | - | - |
| 1787972623 | 31.67° C | 42% | 1012.4 hPa | 0 mm | - | - | - |
| 1787972022 | 32.22° C | 42% | 1012.2 hPa | 0 mm | - | - | - |
| 1787971420 | 32.22° C | 42% | 1012.3 hPa | 0 mm | - | - | - |
| 1787970819 | 32.78° C | 41% | 1012.3 hPa | 0 mm | - | - | - |
| 1787970217 | 32.78° C | 41% | 1012.2 hPa | 0 mm | - | - | - |
* Rain latest hour (hover to see other rain measurements)
** Current wind speed in m/s (hover to see current wind gust speed)